Wausau, WI

1:45 PM CST on February 26, 2017 (GMT -0600)
Wausau Downtown

Weather History for KAUW - January, 2014

Change the Weather History Date:

Wednesday, January 1, 2014

  Actual Average Record
Temperature  
Mean Temperature -2 °F 15 °F  
Max Temperature 6 °F 23 °F 46 °F (1910)
Min Temperature -11 °F 7 °F -32 °F (1947)
Degree Days  
Heating Degree Days 67 50  
Month to date heating degree days 67 50  
Since 1 July heating degree days 3540 3336  
Cooling Degree Days 0 0  
Month to date cooling degree days 0 0  
Year to date cooling degree days 0 0  
Moisture  
Dew Point -10 °F    
Average Humidity 67    
Maximum Humidity 79    
Minimum Humidity 54    
Precipitation  
Precipitation 0.00 in 0.04 in 0.44 in (1918)
Month to date precipitation 0.00 0.04  
Year to date precipitation 0.00 0.04  
Snow  
Snow 0.00 in 0.40 in 5.40 in (1918)
Month to date snowfall 0.0 0.4  
Since 1 July snowfall 28.7 22.6  
Snow Depth 11.00 in    
Sea Level Pressure  
Sea Level Pressure 30.45 in    
Wind  
Wind Speed 5 mph (North)    
Max Wind Speed 10 mph    
Max Gust Speed 14 mph    
Visibility 10 miles    
Events      
T = Trace of Precipitation, MM = Missing Value Source: NWS Daily Summary

Daily Weather History Graph

Daily Weather History Graph

Search for Another Location

Airport or City:

Trip Planner

Search our weather history database for the weather conditions in past years. The results will help you decide how hot, cold, wet, or windy it might be!

Date:

Astronomy

Jan. 01, 2014 Rise Set
Actual Time 7:36 AM CST 4:27 PM CST
Civil Twilight 7:02 AM CST 5:01 PM CST
Nautical Twilight 6:25 AM CST 5:38 PM CST
Astronomical Twilight 5:50 AM CST 6:14 PM CST
Moon 7:23 AM CST (1/1) 5:16 PM CST (1/1)
Length of Visible Light 9h 58m
Length of Day
8h 51m
New Moon, 0% of the Moon is Illuminated
Jan 1
New Moon
Jan 7
First Quarter
Jan 15
Full
Jan 23
Last Quarter
Jan 30
New

Hourly Weather History & Observations

Time (CST) Temp. Windchill Dew Point Humidity Pressure Visibility Wind Dir Wind Speed Gust Speed Precip Events Conditions
12:54 AM -11.0 °F -24.6 °F -17.0 °F 75% 30.44 in 10.0 mi NW 5.8 mph - N/A   Clear
1:54 AM -9.0 °F -22.3 °F -16.1 °F 71% 30.42 in 10.0 mi North 5.8 mph - N/A   Partly Cloudy
2:54 AM -9.0 °F -25.2 °F -15.0 °F 75% 30.44 in 10.0 mi North 8.1 mph - N/A   Scattered Clouds
3:54 AM -8.0 °F -16.9 °F -14.1 °F 75% 30.44 in 10.0 mi NNW 3.5 mph - N/A   Overcast
4:54 AM -8.0 °F -16.9 °F -14.1 °F 75% 30.44 in 10.0 mi NNW 3.5 mph - N/A   Overcast
5:54 AM -7.1 °F -18.1 °F -13.0 °F 75% 30.45 in 10.0 mi North 4.6 mph - N/A   Overcast
6:54 AM -6.0 °F -14.7 °F -13.0 °F 72% 30.47 in 10.0 mi North 3.5 mph - N/A   Overcast
7:54 AM -5.1 °F -13.6 °F -11.9 °F 72% 30.49 in 10.0 mi North 3.5 mph - N/A   Overcast
8:54 AM -2.9 °F - -11.0 °F 68% 30.51 in 10.0 mi Calm Calm - N/A   Overcast
9:54 AM -2.0 °F -10.1 °F -9.9 °F 69% 30.52 in 10.0 mi ENE 3.5 mph - N/A   Overcast
10:54 AM -0.0 °F -13.0 °F -9.0 °F 66% 30.51 in 10.0 mi ENE 6.9 mph - N/A   Overcast
11:54 AM 1.9 °F -9.2 °F -8.0 °F 63% 30.48 in 10.0 mi NE 5.8 mph - N/A   Overcast
12:54 PM 3.9 °F -8.2 °F -9.0 °F 55% 30.45 in 10.0 mi NE 6.9 mph - N/A   Overcast
1:54 PM 5.0 °F -4.1 °F -9.0 °F 52% 30.43 in 10.0 mi ENE 4.6 mph - N/A   Overcast
2:54 PM 5.0 °F -5.6 °F -8.0 °F 55% 30.42 in 10.0 mi NNE 5.8 mph - N/A   Overcast
3:54 PM 5.0 °F -8.1 °F -8.0 °F 55% 30.43 in 10.0 mi NNE 8.1 mph - N/A   Overcast
4:54 PM 5.0 °F -5.6 °F -8.0 °F 55% 30.44 in 10.0 mi North 5.8 mph - N/A   Overcast
5:54 PM 5.0 °F -4.1 °F -8.0 °F 55% 30.44 in 10.0 mi North 4.6 mph - N/A   Overcast
6:54 PM 3.9 °F -8.2 °F -7.1 °F 60% 30.45 in 10.0 mi North 6.9 mph - N/A   Overcast
7:54 PM 3.9 °F -6.9 °F -6.0 °F 64% 30.45 in 10.0 mi North 5.8 mph - N/A   Overcast
8:54 PM 3.0 °F -8.0 °F -7.1 °F 63% 30.44 in 10.0 mi NNE 5.8 mph - N/A   Overcast
9:54 PM 3.0 °F -9.3 °F -7.1 °F 63% 30.43 in 10.0 mi North 6.9 mph - N/A   Overcast
10:54 PM 3.0 °F -6.4 °F -7.1 °F 63% 30.43 in 10.0 mi North 4.6 mph - N/A   Overcast
11:54 PM 1.9 °F -10.6 °F -8.0 °F 63% 30.42 in 10.0 mi North 6.9 mph - N/A   Overcast